カタログに戻る

SIMORGH NO. 7 STAGE 2

運用中LEO
NORAD 58851·ROCKET BODY·🇮🇷 Iran
この衛星名は、まだ公式ソースで確認されていません。

打ち上げ Jan 28, 2024 から Semnan Space Center

Loading…

次のパス (今後24時間)

TLE

最新Source: Space-Track

元期: Sep 14, 2026, 23:16 UTC

1 58851U 24018C   26257.97012176  .00001078  00000-0  14030-3 0  9994
2 58851  58.6845 267.8681 0418443 213.7787 143.5933 14.41426819138237

AllMySatでSIMORGH NO. 7 STAGE 2をリアルタイム追跡

Download on the App Store